Meteo Giornale » Osservazioni meteo Olanda » Deelen

ore: 14:25 - Osservazioni Meteo Deelen
Lat. 52° 4' N Lon. 5° 53' E Alt. 48 metri s.l.m.

molto_nuvoloso

22 °C

Molto Nuvoloso

Temp. 24 Ore

14 °C

22 °C

Ovest

24 Km/h

Dew point 10 °C

Umidità 46 %

Visibilità  10 Km

Il sole sorge alle ore 06:48

Il sole tramonta alle ore 20:24

Data e Ora Cielo e Fenomeni T °C DP °C Um. % Pres. hPa Vis. km Vento km/h
Oggi h: 14:25 molto_nuvoloso Molto Nuvoloso 22 10 46 1019 10 O 24
Oggi h: 13:55 molto_nuvoloso Molto Nuvoloso 20 10 52 1019 10 O 20.3
Oggi h: 13:25 molto_nuvoloso Molto Nuvoloso 21 11 52 1019 10 O 20.3
Oggi h: 12:55 coperto Coperto 20 11 56 1019 11 O 18.5
Oggi h: 12:25 molto_nuvoloso Molto Nuvoloso 20 11 56 1019 11 O 20.3
Oggi h: 11:55 molto_nuvoloso Molto Nuvoloso 19 14 72 1019 11 O 20.3
Oggi h: 11:25 coperto Coperto 19 15 77 1019 11 O 16.7
Oggi h: 10:55 molto_nuvoloso Molto Nuvoloso 19 15 77 1019 11 O 14.8
Oggi h: 10:25 coperto Coperto 18 15 82 1019 11 O/SO 16.7
Oggi h: 09:55 coperto Coperto 18 16 88 1018 11 SO 13
Oggi h: 09:25 coperto Coperto 17 16 93 1018 11 SO 11.1
Oggi h: 08:55 coperto Coperto 17 16 93 1018 11 O/SO 9.3
Oggi h: 08:25 coperto Coperto 16 16 100 1018 11 O/SO 9.3
Oggi h: 07:55 coperto Coperto 16 15 93 1018 11 SO 9.3
Oggi h: 07:25 coperto Coperto 15 14 93 1017 11 O/SO 9.3
Oggi h: 06:55 coperto Coperto 14 14 100 1017 10 SO 9.3
Oggi h: 06:25 coperto Coperto 14 14 100 1017 10 O/SO 9.3
Oggi h: 05:55 coperto Coperto 14 14 100 1017 10 SO 9.3
Oggi h: 05:25 coperto Coperto 14 13 93 1017 10 SO 9.3
Oggi h: 04:55 sereno Sereno 14 13 93 1017 10 O/SO 9.3
Oggi h: 04:25 sereno Sereno 14 14 100 1017 10 SO 13
Oggi h: 03:55 sereno Sereno 15 14 93 1016 10 SO 11.1
Oggi h: 03:25 coperto Coperto 14 14 100 1016 10 SO 9.3
Oggi h: 02:55 molto_nuvoloso Molto Nuvoloso 15 15 100 1016 10 SO 7.4
Oggi h: 02:25 coperto Coperto 16 15 93 1016 10 S/SO 9.3
Oggi h: 01:25 molto_nuvoloso Molto Nuvoloso 16 15 93 1016 0 SO 9.3
Oggi h: 00:55 molto_nuvoloso Molto Nuvoloso 15 14 93 1016 0 S/SO 9.3
Oggi h: 00:25 sereno Sereno 16 14 87 1016 0 SO 11.1
Ieri h: 23:55 sereno Sereno 16 13 82 1016 0 SO 9.3
Ieri h: 23:25 poco_nuvoloso Poco Nuvoloso 16 13 82 1015 0 O/SO 9.3
Ieri h: 22:55 sereno Sereno 17 13 77 1015 0 O/SO 11.1
Ieri h: 22:25 molto_nuvoloso Molto Nuvoloso 17 13 77 1015 0 O/SO 13
Ieri h: 21:55 coperto Coperto 17 14 82 1014 0 SO 13
Ieri h: 21:25 molto_nuvoloso Molto Nuvoloso 17 13 77 1014 0 SO 9.3
Ieri h: 20:55 molto_nuvoloso Molto Nuvoloso 18 13 72 1014 0 O 13
Ieri h: 20:25 molto_nuvoloso Molto Nuvoloso 18 13 72 1013 0 O 13
Ieri h: 19:55 poco_nuvoloso Poco Nuvoloso 19 13 68 1013 0 O 18.5
Ieri h: 19:25 molto_nuvoloso Molto Nuvoloso 19 12 63 1012 0 O 18.5
Ieri h: 18:55 nuvoloso Nuvoloso 20 12 59 1012 0 O 20.3
Ieri h: 18:25 molto_nuvoloso Molto Nuvoloso 20 12 59 1012 0 O 25.9
Ieri h: 17:55 molto_nuvoloso Molto Nuvoloso 20 12 59 1011 0 O 27.8
Ieri h: 17:25 molto_nuvoloso Molto Nuvoloso 19 12 63 1011 0 O 18.5
Ieri h: 16:55 coperto Coperto 20 13 64 1011 0 O/SO 24
Ieri h: 16:25 poco_nuvoloso Poco Nuvoloso 20 14 68 1010 0 O/SO 25.9
Ieri h: 15:55 molto_nuvoloso Molto Nuvoloso 19 14 72 1010 0 O 16.7
Ieri h: 15:25 coperto_temporali Temporale Nebbia 17 13 77 1010 0 O/SO 14.8
Ieri h: 14:55 coperto_temporali Temporale Nebbia 19 12 63 1009 0 S/SO 29.6